Overview Statistics Trail Chart Weather Telemetry Raw packets
 

This is the latest recevied weather packets stored in our database for station/object DG1ROH. If no packets are shown the sender has not sent any weather packets the latest 10 day(s).

<< 122 123 124 125 126 127 128 >>
Time Temp. Humidity Pressure Rain* Wind** Luminosity Snow
1777454835 11.67° C 35% 1029.8 hPa 0 mm - 671 W/m² -
1777454715 11.67° C 35% 1029.8 hPa 0 mm - 670 W/m² -
1777454594 11.67° C 36% 1029.8 hPa 0 mm - 666 W/m² -
1777454475 11.67° C 35% 1029.9 hPa 0 mm - 664 W/m² -
1777454355 11.67° C 34% 1029.8 hPa 0 mm - 661 W/m² -
1777454235 12.22° C 35% 1029.8 hPa 0 mm - 659 W/m² -
1777454115 12.22° C 36% 1029.8 hPa 0 mm - 656 W/m² -
1777453995 12.22° C 37% 1029.9 hPa 0 mm - 654 W/m² -
1777453875 12.22° C 35% 1029.9 hPa 0 mm - 652 W/m² -
1777453754 11.67° C 36% 1029.8 hPa 0 mm - 649 W/m² -
1777453635 12.22° C 38% 1029.9 hPa 0 mm - 645 W/m² -
1777453514 11.67° C 36% 1029.8 hPa 0 mm - 643 W/m² -
1777453395 11.67° C 34% 1029.9 hPa 0 mm - 640 W/m² -
1777453275 11.67° C 36% 1029.9 hPa 0 mm - 638 W/m² -
1777453155 11.67° C 36% 1029.9 hPa 0 mm - 635 W/m² -
1777453035 11.67° C 36% 1029.9 hPa 0 mm - 631 W/m² -
1777452914 11.67° C 36% 1029.9 hPa 0 mm - 629 W/m² -
1777452795 11.67° C 34% 1029.8 hPa 0 mm - 628 W/m² -
1777452675 11.67° C 35% 1029.9 hPa 0 mm - 622 W/m² -
1777452555 11.67° C 34% 1029.9 hPa 0 mm - 619 W/m² -
1777452435 12.22° C 38% 1029.8 hPa 0 mm - 615 W/m² -
1777452315 12.22° C 37% 1029.8 hPa 0 mm - 612 W/m² -
1777452194 11.67° C 37% 1029.8 hPa 0 mm - 610 W/m² -
1777452075 11.67° C 36% 1029.8 hPa 0 mm - 608 W/m² -
1777451954 11.67° C 37% 1029.8 hPa 0 mm - 603 W/m² -

* Rain latest hour (hover to see other rain measurements)
** Current wind speed in m/s (hover to see current wind gust speed)